Location: Newark
(34.6283°N, 36.0776°E)
Time: 17:47:57
(UTC+00:00)

Vanguard 1 Rocket - Visible Passes

Search period start: 17 October 2019 00:00
Search period end: 27 October 2019 00:00
Orbit: 650 x 4226 km, 34.3° (Epoch: 13 October)

Date Brightness Start Highest point End Pass type
(mag) Time Alt. Az. Time Alt. Az. Time Alt. Az.
17 Oct 11.3 17:09:06 10° W 17:24:47 22° SW 17:36:41 10° S visible
18 Oct 11.2 15:50:35 10° WNW 16:12:18 36° SW 16:28:26 10° SSE visible
19 Oct 11.6 17:14:16 10° W 17:26:21 16° WSW 17:36:19 10° SSW visible
20 Oct 11.4 15:54:00 10° W 16:13:53 30° SW 16:29:33 10° S visible
21 Oct 11.4 14:37:19 10° WNW 15:00:29 44° SW 15:19:55 10° SSE visible
21 Oct 11.8 17:22:43 10° WSW 17:27:58 11° WSW 17:32:50 10° SW visible
22 Oct 11.6 15:58:03 10° W 16:15:28 24° SW 16:30:03 10° S visible
23 Oct 11.6 14:40:28 10° WNW 15:02:11 37° SW 15:21:14 10° SSE visible
24 Oct 11.9 16:03:12 10° W 16:17:06 18° SW 16:29:28 10° SSW visible
25 Oct 11.8 14:44:02 10° W 15:03:53 30° SW 15:22:04 10° S visible
26 Oct 12.1 16:11:01 10° WSW 16:18:52 12° SW 16:26:20 10° SW visible
